Regional Weather Roundup
Issued by NWS San Diego, CA

Home | Current Version | Previous Version | Text Only | Print | Product List | Glossary On
Versions: 1 2 3 4 5 6 7 8 9 10 11 12 13 14 15 16 17 18 19 20 21 22 23 24 25 26 27 28 29 30 31 32 33 34 35 36 37 38 39 40 41 42 43 44 45 46 47 48 49 50
000
ASUS46 KSGX 272303
RWRSGX

SAN DIEGO HOURLY WEATHER ROUNDUP
NATIONAL WEATHER SERVICE SAN DIEGO CA
300 PM PST TUE JAN 27 2015

NOTE: "FAIR" INDICATES FEW OR NO CLOUDS BELOW 12,000 FEET WITH NO
SIGNIFICANT WEATHER AND/OR OBSTRUCTIONS TO VISIBILITY.

CAZ042-043-060-061-PZZ750-775-280000-

GREATER SAN DIEGO AREA

CITY           SKY/WX    TMP DP  RH WIND       PRES   REMARKS
LINDBERGH FLD  MOSUNNY   68  53  58 NW10      30.16R
POINT LOMA       N/A     65  57  75 W20         N/A
CHULA VISTA      N/A     71  54  55 W7        30.07S
IMPERIAL BEACH PTSUNNY   67  56  67 W12       30.15R
BROWN FIELD    SUNNY     69  46  43 W10       30.14R
MIRAMAR MCAS   PTSUNNY   70  49  47 NW9       30.14R
MONTGOMERY FLD SUNNY     70  50  49 NW8       30.15R

$$

NORTH SAN DIEGO COUNTY

CITY           SKY/WX    TMP DP  RH WIND       PRES   REMARKS
CAMP PENDLETON MOSUNNY   70  50  49 W7        30.14R
OCEANSIDE AP   SUNNY     67  52  58 W9        30.13S
VISTA            N/A     69  55  62 W2        30.13S
CARLSBAD       SUNNY     66  53  63 W7        30.14R
SAN MARCOS       N/A     71  54  55 NW1       30.13S
POWAY            N/A     72  52  49 CALM      30.16R

$$

EAST SAN DIEGO COUNTY

CITY           SKY/WX    TMP DP  RH WIND       PRES   REMARKS
RAMONA         MOSUNNY   67  51  56 W12       30.15R
SANTEE LAKES     N/A     71  52  50 W6        30.15R
LA MESA          N/A     70  49  46 NW9       30.09R
CAMPO            N/A     64  45  49 SW12      30.12S

$$

ORANGE COUNTY AND THE LOS ANGELES BASIN

CITY           SKY/WX    TMP DP  RH WIND       PRES   REMARKS
JOHN WAYNE AP  MOSUNNY   72  50  45 W7        30.14S
LAKE FOREST FR   N/A     73  48  41 W1        30.04S
SANTA ANA        N/A     76  56  50 W1        30.09S
HUNTINGTON BCH   N/A     67  59  76 SW5       30.16S
LOS ALAMITOS   MOSUNNY   70  55  58 SW10      30.15R
FULLERTON      SUNNY     73  50  44 S8        30.13S
LONG BEACH     SUNNY     72  47  40 SW7       30.15R
L.A. AP        MOSUNNY   64  53  67 W15       30.16S
L.A. DOWNTOWN  SUNNY     70  50  49 VRB5      30.15R

$$

THE INLAND EMPIRE

CITY           SKY/WX    TMP DP  RH WIND       PRES   REMARKS
CORONA         SUNNY     71  49  45 CALM      30.14F
CHINO          MOSUNNY   71  49  45 W7        30.15F
ONTARIO        MOSUNNY   70  47  43 SW6       30.14F
SAN BERNARDINO MOSUNNY   68  43  40 S7        30.14F
RIVERSIDE AP   MOSUNNY   70  49  47 W6        30.14S
MARCH ARB      SUNNY     67  46  47 N1        30.15S
FRENCH VALLEY  FAIR      70  45  40 W5        30.15S

$$

SAN BERNARDINO AND RIVERSIDE COUNTY MOUNTAINS

CITY           SKY/WX    TMP DP  RH WIND       PRES   REMARKS
BIG BEAR AP    SUNNY     46  28  49 W7        30.24S

$$

SOUTHERN DESERT INCLUDING THE COACHELLA VALLEY

CITY           SKY/WX    TMP DP  RH WIND       PRES   REMARKS
PALM SPRINGS   SUNNY     69  50  50 E6        30.18F
THOUSAND PALMS   N/A     71  52  50 CALM      30.16S
THERMAL        SUNNY     70  53  54 SE6       30.15S
BLYTHE         SUNNY     68  57  68 W9        30.16F
IMPERIAL AP    CLOUDY    66  54  65 NW5       30.16F
EL CENTRO NAS  PTSUNNY   66  54  65 CALM      30.17S
YUMA AZ        MOSUNNY   71  56  58 N6        30.15S
MEXICALI       PTSUNNY   66  55  68 NW8       30.17

$$

UPPER DESERT

CITY           SKY/WX    TMP DP  RH WIND       PRES   REMARKS
VICTORVILLE AP   N/A     57  46  67 N5        30.20S
HESPERIA         N/A     60  48  66 NE3       30.31F
APPLE VALLEY     N/A     61  47  60 CALM      30.20S
PALMDALE       CLOUDY    57  46  66 N5        30.21S
LANCASTER      CLOUDY    56  47  71 CALM      30.21S
EDWARDS AFB    PTSUNNY   58  48  70 CALM      30.18F
DAGGETT        SUNNY     63  48  58 NE8       30.19S
29 PALMS N     PTSUNNY   59  50  72 CALM      30.26S
NEEDLES        SUNNY     68  51  54 CALM      30.18S

$$

REGIONAL REPORTS

CITY           SKY/WX    TMP DP  RH WIND       PRES   REMARKS
SANTA BARBARA  MOSUNNY   67  53  61 SW8       30.17S
SANDBERG       CLOUDY    49  44  83 CALM      30.22S
MT. WILSON       N/A     59  45  58 MISG        N/A
LAS VEGAS NV   PTSUNNY   61  48  62 E6        30.15F
PHOENIX AZ     PTSUNNY   72  48  42 CALM      30.13F
TIJUANA        MOSUNNY   68  45  42 W10       30.16R

$$

OFFSHORE ISLANDS

CITY           SKY/WX    TMP DP  RH WIND       PRES   REMARKS
CATALINA ARPT  SUNNY     61  46  57 W7        30.19S
SAN CLEMENTE I MOSUNNY   65  54  65 W6        30.16S
SAN NICOLAS IS PTSUNNY   65  58  78 NW3       30.18S

$$

MARINE AND OFFSHORE BUOY REPORTS

STATION/POSITION SKY/WX   TEMP    WIND        PRES    SWELL
                          AIR SEA DIR/SP/G            HT/PER/DIR
                          (F)     (DEG/KT/KT) (MB)    (FT/S/D)
TANNER BANKS               63 63  220/  2/  4 1021.5F   7/260/14
S CLEMENTE BASIN           62 63  330/  8/ 10 1021.2R   5/290/14
SAN NICOLAS IS.               64                N/A     7/290/15
SO. S. ROSA ISLA           61 62  130/  2/  4 1021.4F   7/14
W. S. BARBARA CH           61 61  130/  2/  4 1021.5F   7/260/13
S. MONICA BASIN            62 63  270/  8/ 10 1021.9F   3/260/14
S PEDRO CHANNEL               63                N/A     3/270/13
DANA POINT                    62                N/A     2/230/13
CMP PENDLETON NS              62                N/A     3/240/14
OCEANSIDE OFFSHR              62                N/A     2/260/14
TORREY PINES OTR              63                N/A     3/270/13
LA JOLLA 1                 63 62  320/  6/  6 1021.1R
MISSION BAY BUOY              63                N/A     3/260/14
SAN DIEGO BAY                 63              1021.3R
POINT LOMA SOUTH              63                N/A     5/270/14

$$



USA.gov is the U.S. government's official web portal to all federal, state and local government web resources and services.